Lexington Weather

Lexington, Massachusetts, USA

42°F
11/27/2020 3:36am 
  • Lexington Conditions: Fog, Overcast
  • Temperature: 41.5°F / 5.3°CWarmer 1.9°F than last hour.
  • Dew Point: 41.0°FIncreased 2.2°Fsince last hour.
  • Relative Humidity: 98%Increased 1.0% since last hour.
  • Wind: Calm, 10-min avg: Calm, gust: None
  • Barometer: 29.97 in Steady
  • Visibility: ½ mile
  • Rain Today: 0.00 in
  •   
Southeast Middlesex County - Special Weather Statement
 - SEE ALL NEARBY ALERTS -

Regional Weather Roundup
for Boston / Norton, MA

        
000
ASUS41 KBOX 220804
RWRBOX

REGIONAL WEATHER ROUNDUP
NATIONAL WEATHER SERVICE BOSTON/NORTON MA
300 AM EST SUN NOV 22 2020

NOTE:  "FAIR" INDICATES FEW OR NO CLOUDS BELOW 12,000 FEET WITH NO 
SIGNIFICANT WEATHER AND/OR OBSTRUCTIONS TO VISIBILITY.

MAZALL-220900-
EASTERN MASSACHUSETTS
  
CITY           SKY/WX    TMP DP  RH WIND       PRES   REMARKS
BOSTON         PTCLDY    38  26  62 N10       30.52S WCI  31          
BEVERLY        CLEAR     35  26  69 N7        30.51S WCI  29          
LAWRENCE       CLEAR     34  26  72 NE3       30.55R                  
BEDFORD        CLEAR     31  25  78 CALM      30.51S                  
BLUE HILL        N/A     36  26  67 N9        30.47S WCI  29          
NORWOOD        CLEAR     38  26  62 N3        30.51R                  
MARSHFIELD     CLOUDY    46  32  57 NE12G18   30.49S                  
PLYMOUTH       MOCLDY    44  32  62 NE10      30.48S                  
TAUNTON        CLEAR     41  28  60 N3        30.49S                  
NEW BEDFORD    CLEAR     43  31  62 N5        30.47S                  
$$

MAZALL-220900-
CAPE COD AND THE ISLANDS
  
CITY           SKY/WX    TMP DP  RH WIND       PRES   REMARKS
FALMOUTH       CLOUDY    45  34  65 NE14      30.47R                  
HYANNIS        PTCLDY    45  34  65 NE9       30.46R                  
CHATHAM        PTCLDY    47  34  60 NE9       30.48R                  
PROVINCETOWN   CLEAR     45  34  65 NE14      30.50R                  
NANTUCKET      CLOUDY    49  37  63 NE18      30.44S                  
MARTHAS VNYRD  CLOUDY    47  35  63 NE18G24   30.45S                  
$$
 
MAZALL-220900-
CENTRAL AND WESTERN MASSACHUSETTS
  
CITY           SKY/WX    TMP DP  RH WIND       PRES   REMARKS
WORCESTER      CLEAR     34  25  69 N7        30.48S WCI  28          
FITCHBURG      CLEAR     27  24  89 NW5       30.53R WCI  22          
ORANGE         CLEAR     26  25  96 CALM      30.52R                  
SPRINGFIELD    CLEAR     28  26  90 CALM      30.50R                  
WESTFIELD      CLEAR     31  28  89 N5        30.51R WCI  26          
NORTH ADAMS    CLEAR     25  21  85 CALM      30.51R                  
PITTSFIELD     CLEAR     26  24  92 CALM      30.47R                  
$$
 
RIZALL-220900-
RHODE ISLAND
  
CITY           SKY/WX    TMP DP  RH WIND       PRES   REMARKS
PROVIDENCE     CLEAR     41  27  57 N12       30.50R                  
NEWPORT        PTCLDY    42  30  62 N9        30.47R                  
BLOCK ISLAND   CLOUDY    46  35  65 NE15G22   30.46R                  
SMITHFIELD     CLEAR     36  29  75 N8        30.49S WCI  30          
WESTERLY       CLEAR     44  28  53 NE6       30.47R                  
$$
 
CTZALL-220900-
CONNECTICUT
  
CITY           SKY/WX    TMP DP  RH WIND       PRES   REMARKS
BRADLEY INTL   PTCLDY    34  27  75 N6        30.50R WCI  29          
HARTFORD       CLEAR     40  28  62 N7        30.50R                  
BRIDGEPORT     CLOUDY    44  30  57 N10       30.47S                  
DANBURY        MOCLDY    38  27  64 CALM      30.48S                  
GROTON         CLEAR     45  30  55 N13       30.47R                  
NEW HAVEN      CLOUDY    43  30  60 N13       30.47R                  
CHESTER        FAIR      39  30  70 N7        30.47R                  
MERIDEN        PTCLDY    40  28  62 N6        30.49R                  
WILLIMANTIC    CLEAR     39  28  64 NE7       30.49R                  
OXFORD         PTCLDY    36  29  75 N14G21    30.46S WCI  27          
$$

MEZ002-015-021-024-NHZ003-005-008-011-012-014-VTZ005-008-220900-
NORTHERN NEW ENGLAND
  
CITY           SKY/WX    TMP DP  RH WIND       PRES   REMARKS
PORTLAND ME    CLEAR     28  21  75 N6        30.55R WCI  22          
BANGOR ME      CLEAR     24  15  68 NE3       30.55R                  
CONCORD NH     CLEAR     25  21  85 CALM      30.54R                  
MANCHESTER NH  CLEAR     31  24  75 CALM      30.52R                  
NASHUA NH      CLEAR     26  25  96 NW7       30.54R WCI  18          
PORTSMOUTH NH  CLEAR     32  23  69 NW5       30.52  WCI  27          
JAFFREY NH     CLEAR     26  22  84 CALM      30.50R                  
KEENE NH       CLEAR     24  23  96 CALM      30.53R                  
BURLINGTON VT  CLEAR     30  20  66 CALM      30.53S                  
MT. WASHINGTON CLEAR     23 -27   9 NW25        N/A  WCI   7          
$$

NYZ052-076-220900-
EASTERN NEW YORK
  
CITY           SKY/WX    TMP DP  RH WIND       PRES   REMARKS
ALBANY         MOCLDY    26  25  96 CALM      30.52R                  
NEW YORK CITY  MOCLDY    46  29  51 N10       30.47R                  
$$
 
ANZALL-220900-
MARINE OBSERVATIONS
  
STATION/POSITION TIME  TEMP    WIND        PRES    VSBY  WAVE
                       AIR SEA DIR/SP/G                  HT/PER
                 (UTC) (F)     (DEG/KT/KT) (MB)    (MI)  (FT/S)
BOSTON BUOY      0740   45 51   40/ 14/ 17 1033.4R
BUZZARDS BAY     0700           30/ 22/ 24 1031.9R
NANTUCKET SOUND  0740      53   30/ 17/ 21   N/A
MASS BAY-STELLWA NOT AVBL
ISLE OF SHOALS   0700   42      20/ 13/ 15 1033.0R
S OF BLOCK IS    0726      58                N/A           5/ 5
$$

......................KEY.........................
  SKY/WX - SKY CONDITION/PRESENT WEATHER
  TMP    - TEMPERATURE IN FAHRENHEIT
  DWPT   - DEWPOINT IN FAHRENHEIT
  RH     - RELATIVE HUMIDITY IN PERCENT
  WIND   - DIRECTION AND SPEED IN MPH
  PRES   - MEAN SEA LEVEL PRESSURE IN INCHES OF HG
  WCI    - WIND CHILL INDEX
  VSB    - VISIBILITY IN MILES
  HX     - HEAT INDEX
  TC     - TEMPERATURE IN CELSIUS
  VRB    - VARIABLE WIND DIRECTION
  N/A    - NOT AVAILABLE
  
      

Other recent Regional Weather Roundups

Fri Nov 27, 12:04am

Thu Nov 26, 11:04pm

Thu Nov 26, 10:04pm

Thu Nov 26, 9:04pm

Thu Nov 26, 8:04pm

Thu Nov 26, 7:04pm

Thu Nov 26, 6:04pm

Thu Nov 26, 5:04pm

Thu Nov 26, 4:04pm

Thu Nov 26, 2:04pm

Thu Nov 26, 1:04pm

Thu Nov 26, 12:04pm

Thu Nov 26, 11:04am

Thu Nov 26, 10:04am

Thu Nov 26, 9:04am

Thu Nov 26, 8:04am

Thu Nov 26, 7:04am

Thu Nov 26, 6:04am

Thu Nov 26, 5:04am

Thu Nov 26, 4:04am

Thu Nov 26, 3:04am

Thu Nov 26, 2:04am

Thu Nov 26, 1:04am

Thu Nov 26, 12:04am

Wed Nov 25, 11:04pm

Wed Nov 25, 10:04pm

Wed Nov 25, 9:04pm

Wed Nov 25, 8:04pm

Wed Nov 25, 7:04pm

Wed Nov 25, 6:04pm

Wed Nov 25, 5:04pm

Wed Nov 25, 4:04pm

Wed Nov 25, 3:05pm

Wed Nov 25, 2:04pm

Wed Nov 25, 1:04pm

Wed Nov 25, 12:05pm

Wed Nov 25, 11:04am

Wed Nov 25, 10:04am

Wed Nov 25, 9:04am

Wed Nov 25, 8:04am

Wed Nov 25, 7:04am

Wed Nov 25, 6:04am

Wed Nov 25, 5:04am

Wed Nov 25, 4:04am

Wed Nov 25, 3:04am

Wed Nov 25, 2:04am

Wed Nov 25, 1:04am

Wed Nov 25, 12:04am

Tue Nov 24, 11:04pm

Tue Nov 24, 10:04pm

Tue Nov 24, 9:04pm

Tue Nov 24, 8:04pm

Tue Nov 24, 7:04pm

Tue Nov 24, 6:04pm

Tue Nov 24, 5:04pm

Tue Nov 24, 4:05pm

Tue Nov 24, 3:05pm

Tue Nov 24, 2:05pm

Tue Nov 24, 1:05pm

Tue Nov 24, 12:04pm

Tue Nov 24, 11:04am

Tue Nov 24, 10:04am

Tue Nov 24, 9:04am

Tue Nov 24, 8:04am

Tue Nov 24, 7:04am

Tue Nov 24, 6:04am

Tue Nov 24, 5:04am

Tue Nov 24, 4:05am

Tue Nov 24, 3:04am

Tue Nov 24, 2:04am

Tue Nov 24, 1:04am

Tue Nov 24, 12:05am

Mon Nov 23, 11:04pm

Mon Nov 23, 10:04pm

Mon Nov 23, 9:04pm

Mon Nov 23, 8:04pm

Mon Nov 23, 7:04pm

Mon Nov 23, 6:04pm

Mon Nov 23, 5:04pm

Mon Nov 23, 4:04pm

Mon Nov 23, 3:04pm

Mon Nov 23, 2:04pm

Mon Nov 23, 1:04pm

Mon Nov 23, 12:04pm

Mon Nov 23, 11:04am

Mon Nov 23, 10:04am

Mon Nov 23, 9:04am

Mon Nov 23, 8:05am

Mon Nov 23, 7:04am

Mon Nov 23, 6:04am

Mon Nov 23, 5:04am

Mon Nov 23, 4:04am

Mon Nov 23, 3:04am

Mon Nov 23, 2:04am

Mon Nov 23, 1:04am

Mon Nov 23, 12:05am

Sun Nov 22, 11:04pm

Sun Nov 22, 10:04pm

Sun Nov 22, 9:04pm

Sun Nov 22, 8:05pm

Sun Nov 22, 7:04pm

Sun Nov 22, 6:04pm

Sun Nov 22, 5:04pm

Sun Nov 22, 4:04pm

Sun Nov 22, 3:04pm

Sun Nov 22, 2:04pm

Sun Nov 22, 1:05pm

Sun Nov 22, 12:04pm

Sun Nov 22, 11:04am

Sun Nov 22, 10:05am

Sun Nov 22, 9:04am

Sun Nov 22, 8:04am

Sun Nov 22, 7:04am

Sun Nov 22, 6:04am

Sun Nov 22, 5:04am

Sun Nov 22, 4:04am

Sun Nov 22, 2:04am

Sun Nov 22, 1:04am

Sun Nov 22, 12:04am

Sat Nov 21, 11:04pm

Sat Nov 21, 10:04pm

Sat Nov 21, 9:04pm

Sat Nov 21, 8:05pm

Sat Nov 21, 7:04pm

Sat Nov 21, 6:04pm

Sat Nov 21, 5:04pm

Sat Nov 21, 4:05pm

Sat Nov 21, 3:04pm

Sat Nov 21, 2:04pm

Sat Nov 21, 1:05pm

Sat Nov 21, 12:04pm

Sat Nov 21, 11:04am

Sat Nov 21, 10:04am

Sat Nov 21, 9:04am

Sat Nov 21, 8:04am

Sat Nov 21, 7:04am

Sat Nov 21, 6:04am

Sat Nov 21, 5:04am

Sat Nov 21, 4:04am

Sat Nov 21, 3:04am

Sat Nov 21, 2:04am

Sat Nov 21, 1:04am

Sat Nov 21, 12:04am

Fri Nov 20, 11:04pm

Fri Nov 20, 10:04pm

Fri Nov 20, 9:04pm

Fri Nov 20, 8:04pm

Fri Nov 20, 7:04pm

Fri Nov 20, 6:04pm

Fri Nov 20, 5:04pm

Fri Nov 20, 4:05pm

Fri Nov 20, 3:05pm

Fri Nov 20, 2:04pm

Fri Nov 20, 1:04pm

Fri Nov 20, 12:04pm

Fri Nov 20, 11:04am

Fri Nov 20, 10:04am

Fri Nov 20, 9:04am

Fri Nov 20, 8:04am

Fri Nov 20, 7:04am

Fri Nov 20, 6:04am

Fri Nov 20, 5:04am

Fri Nov 20, 4:04am

Meta data:

ID: 1297c89a-2dfe-46f4-9c06-a318182aee64
Link: https://api.weather.gov/products/1297c89a-2dfe-46f4-9c06-a318182aee64